TimeEST,TemperatureF,Dew PointF,Humidity,Sea Level PressureIn,VisibilityMPH,Wind Direction,Wind SpeedMPH,Gust SpeedMPH,PrecipitationIn,Events,Conditions,WindDirDegrees,DateUTC
12:18 AM,41.0,39.2,93,30.45,7.0,Calm,Calm,-,N/A,,Clear,0,2012-11-12 05:18:00
12:39 AM,41.0,37.4,87,30.45,7.0,Calm,Calm,-,N/A,,Clear,0,2012-11-12 05:39:00
1:03 AM,39.2,37.4,93,30.44,5.0,Calm,Calm,-,N/A,,Clear,0,2012-11-12 06:03:00
1:24 AM,41.0,37.4,87,30.44,3.0,Calm,Calm,-,N/A,,Clear,0,2012-11-12 06:24:00
1:45 AM,41.0,37.4,87,30.44,5.0,Calm,Calm,-,N/A,,Clear,0,2012-11-12 06:45:00
2:06 AM,39.2,37.4,93,30.44,5.0,Calm,Calm,-,N/A,,Clear,0,2012-11-12 07:06:00
2:48 AM,37.4,37.4,100,30.43,4.0,Calm,Calm,-,N/A,,Clear,0,2012-11-12 07:48:00
3:09 AM,37.4,37.4,100,30.43,3.0,Calm,Calm,-,N/A,,Clear,0,2012-11-12 08:09:00
3:30 AM,37.4,35.6,93,30.43,7.0,Calm,Calm,-,N/A,,Clear,0,2012-11-12 08:30:00
3:51 AM,37.4,35.6,93,30.43,5.0,Calm,Calm,-,N/A,,Clear,0,2012-11-12 08:51:00
4:12 AM,37.4,35.6,93,30.43,4.0,Calm,Calm,-,N/A,,Clear,0,2012-11-12 09:12:00
4:33 AM,37.4,37.4,100,30.43,4.0,Calm,Calm,-,N/A,,Clear,0,2012-11-12 09:33:00
5:18 AM,37.4,37.4,100,30.43,4.0,Calm,Calm,-,N/A,,Clear,0,2012-11-12 10:18:00
5:39 AM,37.4,35.6,93,30.42,4.0,Calm,Calm,-,N/A,,Clear,0,2012-11-12 10:39:00
6:00 AM,37.4,35.6,93,30.42,3.0,Calm,Calm,-,N/A,,Clear,0,2012-11-12 11:00:00
6:21 AM,37.4,35.6,93,30.42,3.0,Calm,Calm,-,N/A,,Clear,0,2012-11-12 11:21:00
7:03 AM,37.4,35.6,93,30.43,2.0,Calm,Calm,-,N/A,,Clear,0,2012-11-12 12:03:00
7:45 AM,39.2,37.4,93,30.43,7.0,Calm,Calm,-,N/A,,Clear,0,2012-11-12 12:45:00
8:06 AM,41.0,41.0,100,30.43,4.0,Calm,Calm,-,N/A,,Clear,0,2012-11-12 13:06:00
8:27 AM,46.4,44.6,93,30.42,4.0,Calm,Calm,-,N/A,,Clear,0,2012-11-12 13:27:00
8:48 AM,46.4,44.6,93,30.42,10.0,Calm,Calm,-,N/A,,Clear,0,2012-11-12 13:48:00
9:12 AM,53.6,48.2,82,30.41,10.0,Calm,Calm,-,N/A,,Clear,0,2012-11-12 14:12:00
9:33 AM,55.4,50.0,82,30.41,10.0,SSE,3.5,-,N/A,,Clear,160,2012-11-12 14:33:00
9:54 AM,57.2,50.0,77,30.40,10.0,Calm,Calm,-,N/A,,Clear,0,2012-11-12 14:54:00
10:15 AM,60.8,51.8,72,30.40,10.0,Calm,Calm,-,N/A,,Clear,0,2012-11-12 15:15:00
10:36 AM,62.6,51.8,68,30.39,10.0,SSE,4.6,-,N/A,,Clear,150,2012-11-12 15:36:00
10:57 AM,64.4,51.8,64,30.38,10.0,South,5.8,-,N/A,,Clear,170,2012-11-12 15:57:00
11:18 AM,66.2,53.6,64,30.37,10.0,South,6.9,-,N/A,,Clear,170,2012-11-12 16:18:00
12:00 PM,68.0,53.6,60,30.35,10.0,SE,8.1,-,N/A,,Clear,140,2012-11-12 17:00:00
12:21 PM,69.8,53.6,56,30.34,10.0,South,8.1,17.3,N/A,,Clear,180,2012-11-12 17:21:00
12:42 PM,69.8,53.6,56,30.32,10.0,SE,9.2,-,N/A,,Scattered Clouds,140,2012-11-12 17:42:00
1:03 PM,69.8,51.8,53,30.31,10.0,South,6.9,-,N/A,,Clear,170,2012-11-12 18:03:00
1:24 PM,69.8,51.8,53,30.30,10.0,South,10.4,16.1,N/A,,Scattered Clouds,180,2012-11-12 18:24:00
1:48 PM,71.6,53.6,53,30.29,10.0,South,9.2,-,N/A,,Mostly Cloudy,170,2012-11-12 18:48:00
2:09 PM,69.8,53.6,56,30.28,10.0,East,5.8,-,N/A,,Scattered Clouds,90,2012-11-12 19:09:00
2:30 PM,68.0,53.6,60,30.27,10.0,SE,5.8,-,N/A,,Scattered Clouds,130,2012-11-12 19:30:00
2:51 PM,68.0,53.6,60,30.26,10.0,SE,9.2,-,N/A,,Mostly Cloudy,130,2012-11-12 19:51:00
3:12 PM,66.2,53.6,64,30.25,10.0,ESE,9.2,-,N/A,,Mostly Cloudy,120,2012-11-12 20:12:00
3:33 PM,66.2,53.6,64,30.25,10.0,SE,8.1,-,N/A,,Scattered Clouds,130,2012-11-12 20:33:00
3:54 PM,64.4,53.6,68,30.24,10.0,SE,8.1,-,N/A,,Clear,130,2012-11-12 20:54:00
4:36 PM,62.6,53.6,72,30.24,10.0,SE,8.1,16.1,N/A,,Clear,140,2012-11-12 21:36:00
4:57 PM,62.6,53.6,72,30.24,10.0,SE,5.8,-,N/A,,Clear,140,2012-11-12 21:57:00
5:18 PM,62.6,53.6,72,30.24,10.0,SE,8.1,-,N/A,,Clear,140,2012-11-12 22:18:00
5:39 PM,62.6,53.6,72,30.24,10.0,SSE,6.9,-,N/A,,Clear,150,2012-11-12 22:39:00
6:00 PM,62.6,53.6,72,30.24,10.0,SSE,6.9,-,N/A,,Scattered Clouds,160,2012-11-12 23:00:00
6:24 PM,62.6,53.6,72,30.23,10.0,SE,6.9,-,N/A,,Mostly Cloudy,130,2012-11-12 23:24:00
6:45 PM,60.8,53.6,77,30.22,10.0,SE,8.1,-,N/A,,Scattered Clouds,140,2012-11-12 23:45:00
7:06 PM,60.8,53.6,77,30.22,10.0,SE,6.9,-,N/A,,Clear,140,2012-11-13 00:06:00
7:48 PM,60.8,53.6,77,30.21,10.0,SSE,6.9,-,N/A,,Overcast,150,2012-11-13 00:48:00
8:09 PM,60.8,53.6,77,30.21,10.0,SE,5.8,-,N/A,,Overcast,140,2012-11-13 01:09:00
8:30 PM,60.8,53.6,77,30.20,10.0,SE,8.1,-,N/A,,Overcast,140,2012-11-13 01:30:00
8:51 PM,60.8,53.6,77,30.19,10.0,SE,8.1,-,N/A,,Overcast,140,2012-11-13 01:51:00
9:12 PM,60.8,53.6,77,30.19,10.0,SE,6.9,-,N/A,,Overcast,130,2012-11-13 02:12:00
9:33 PM,60.8,53.6,77,30.19,10.0,SSE,5.8,-,N/A,,Overcast,150,2012-11-13 02:33:00
9:54 PM,60.8,53.6,77,30.19,10.0,WSW,4.6,-,N/A,,Overcast,250,2012-11-13 02:54:00
10:18 PM,59.0,53.6,82,30.19,10.0,SSE,5.8,-,N/A,,Mostly Cloudy,150,2012-11-13 03:18:00
10:39 PM,60.8,55.4,82,30.18,10.0,SSE,5.8,-,N/A,,Overcast,160,2012-11-13 03:39:00
11:00 PM,60.8,55.4,82,30.17,10.0,South,4.6,-,N/A,,Mostly Cloudy,170,2012-11-13 04:00:00
11:21 PM,60.8,55.4,82,30.17,10.0,South,4.6,-,N/A,,Overcast,170,2012-11-13 04:21:00
11:42 PM,62.6,55.4,77,30.16,10.0,South,5.8,-,N/A,,Overcast,190,2012-11-13 04:42:00